{"data":{"norad_id":66737,"intl_designator":"2025-276BZ","name":"FLOCK 4H-34","alt_names":[],"object_type":"PAYLOAD","status":"ACTIVE","operator":null,"country":"US","launch_date":"2025-11-28","launch_site_code":"AFWTR","launch_vehicle":null,"mission":null,"orbit_class":"UNKNOWN","rcs_meters":null,"size_class":null,"mass_kg":null,"dimensions":null,"purposes":["earth_obs"],"wikipedia_slug":null,"has_3d_model":false,"image_url":null,"decayed_at":null,"tle_current":{"epoch":"2026-09-20T04:20:49.516224Z","epoch_age_seconds":45860,"freshness":"FRESH","line1":"1 66737U 25276BZ  26263.18112866  .00004137  00000+0  18678-3 0  9990","line2":"2 66737  97.4158 335.6063 0002032  18.3605 341.7704 15.21533459 44126","mean_motion":15.21533459,"eccentricity":0.0002032,"inclination_deg":97.4158,"raan_deg":335.6063,"arg_perigee_deg":18.3605,"mean_anomaly_deg":341.7704,"bstar":0.00018678,"rev_number":4412,"period_min":94.641362730624,"perigee_km":499.81666346757,"apogee_km":502.61243193655,"semimajor_km":6879.3515477021,"source":"CELESTRAK","updated_at":"2026-09-20T09:00:34.754049Z"}}}